Simultaneous Nadir Overpasses (SNOs) Predictions

Prediction of SNOs between AQUA and NOAA-19 Satellite Orbit:

Table of predicted SNOs for the next 14.0 days since TLE Epoch: 3/8/2019
Index Date (AQUA) Time (AQUA) Lat,Lon (AQUA) SZA (AQUA ) Date (NOAA-19) Time (NOAA-19) Lat,Lon (NOAA-19) SZA (NOAA-19 ) Distance(km) Time Diff (sec)
1 03/10/2019 00:06:38 -80.51, -36.89 93.25 03/10/2019 00:05:29 -80.52, -36.81 93.22 2.29 69
2 03/10/2019 00:56:05 80.53, 130.48 86.79 03/10/2019 00:56:27 80.52, 130.33 86.78 3.31 22
3 03/12/2019 06:29:50 -80.51,-132.71 94.15 03/12/2019 06:29:57 -80.53,-132.72 94.13 2.05 7
4 03/14/2019 12:03:35 80.52, -36.20 84.98 03/14/2019 12:03:24 80.51, -36.34 85.00 2.61 11
5 03/16/2019 17:37:21 -80.53, 60.24 95.90 03/16/2019 17:36:54 -80.51, 60.21 95.90 2.48 27
6 03/16/2019 18:26:47 80.52,-132.09 84.09 03/16/2019 18:27:52 80.52,-132.12 84.06 0.53 65
7 03/18/2019 23:11:05 80.51, 157.00 83.18 03/18/2019 23:10:21 80.50, 156.92 83.20 1.48 44
8 03/19/2019 00:00:32 -80.51, -35.36 96.84 03/19/2019 00:01:21 -80.52, -35.43 96.84 2.22 49
9 03/21/2019 04:44:50 -80.49,-106.30 97.75 03/21/2019 04:43:49 -80.51,-106.25 97.71 1.92 61




NCC Satellite Simultaneous Nadir Overpasses (SNOs) Prediction Service
